Walla Walla, WA
on Saturday, November 24, 2012

Saturday
Previous Day Next Day
Daily Summary
 ActualAverage (KPDT)Record (KPDT)
Temperature
Mean Temperature °F 38°F  
Max Temperature 51°F 45°F 71°F (1960)
Min Temperature 39°F 31°F -11°F (1985)
Degree Days
Heating Degree Days 18 27  
Month to date heating degree days 543  
Since 1 July heating degree days 1085  
Cooling Degree Days 0 0  
Month to date cooling degree days 0  
Year to date cooling degree days 636  
Moisture
Dew Point 44°F   
Average Humidity 86    
Maximum Humidity 93    
Minimum Humidity 74    
Precipitation
Precipitation 0.25 in 0.05 in 0.57 in (1964)
Month to date precipitation 1.21  
Year to date precipitation 10.88  
Snow
Snow 0.00 in 0.10 in 6.40 in (1961)
Month to date snowfall 0.9  
Year to date snowfall 8.7  
Since 1 July snowfall 1.0  
Snow Depth in   
Wind
Wind Speed 8 mph   
Max Wind Speed 18 mph   
Max Gust Speed mph   
Visibility 9 miles   
Events Rain   

Key: T is trace of precipitation, MM is missing value
Source: NWS Daily Summary
Time(PST)TemperatureDew PointHumidity Pressure Visibility Wind DirectionWind SpeedGust SpeedPrecipitationEvents Conditions
12:53 AM 50.0°F 45.0°F 83% 30.15 in 7.0 miles South 11.5 mph - 0.00 in Rain Light Rain
1:05 AM 48.2°F 46.4°F 93% 30.14 in 4.0 miles SSW 10.4 mph - 0.01 in Rain Light Rain
1:53 AM 48.0°F 46.0°F 93% 30.16 in 5.0 miles South 12.7 mph - 0.06 in Rain Light Rain
2:53 AM 48.9°F 46.0°F 90% 30.16 in 6.0 miles South 12.7 mph - 0.03 in Rain Light Rain
3:53 AM 48.9°F 46.0°F 90% 30.17 in 5.0 miles South 15.0 mph - 0.05 in Rain Rain
4:53 AM 48.9°F 45.0°F 86% 30.16 in 6.0 miles SSE 18.4 mph - 0.07 in Rain Light Rain
5:53 AM 50.0°F 45.0°F 83% 30.15 in 9.0 miles SSW 15.0 mph - 0.03 in Rain Light Rain
6:53 AM 48.0°F 45.0°F 89% 30.16 in 10.0 miles West 6.9 mph - 0.01 in   Overcast
7:53 AM 48.9°F 46.0°F 90% 30.17 in 10.0 miles Calm Calm - N/A   Overcast
8:53 AM 48.9°F 46.0°F 90% 30.19 in 10.0 miles NE 4.6 mph - N/A   Overcast
9:16 AM 50.0°F 46.4°F 87% 30.18 in 10.0 miles NE 3.5 mph - N/A   Overcast
9:37 AM 50.0°F 46.4°F 87% 30.18 in 10.0 miles East 3.5 mph - N/A   Overcast
9:53 AM 51.1°F 45.0°F 80% 30.20 in 10.0 miles Calm Calm - N/A   Overcast
10:53 AM 50.0°F 46.0°F 86% 30.20 in 10.0 miles Calm Calm - N/A   Overcast
11:53 AM 51.1°F 46.9°F 86% 30.17 in 10.0 miles SSW 4.6 mph - N/A   Overcast
12:53 PM 50.0°F 46.9°F 89% 30.17 in 10.0 miles West 9.2 mph - 0.00 in   Overcast
1:06 PM 50.0°F 46.4°F 87% 30.16 in 9.0 miles West 8.1 mph - 0.00 in Rain Light Rain
1:37 PM 50.0°F 44.6°F 82% 30.15 in 10.0 miles WNW 4.6 mph - 0.00 in   Overcast
1:53 PM 50.0°F 44.1°F 80% 30.16 in 10.0 miles West 3.5 mph - 0.00 in   Overcast
2:13 PM 50.0°F 44.6°F 82% 30.14 in 10.0 miles WNW 3.5 mph - N/A   Overcast
2:48 PM 48.2°F 42.8°F 82% 30.14 in 10.0 miles West 3.5 mph - N/A   Overcast
2:53 PM 50.0°F 42.1°F 74% 30.16 in 10.0 miles WSW 4.6 mph - N/A   Overcast
3:53 PM 48.9°F 43.0°F 80% 30.17 in 10.0 miles Calm Calm - N/A   Overcast
4:53 PM 46.9°F 43.0°F 86% 30.16 in 10.0 miles Calm Calm - N/A   Overcast
5:53 PM 46.9°F 43.0°F 86% 30.15 in 10.0 miles Calm Calm - N/A   Overcast
6:53 PM 46.0°F 43.0°F 89% 30.16 in 10.0 miles South 3.5 mph - N/A   Overcast
7:53 PM 45.0°F 42.1°F 90% 30.15 in 10.0 miles SSE 4.6 mph - N/A   Overcast
8:53 PM 44.1°F 41.0°F 89% 30.16 in 10.0 miles South 5.8 mph - N/A   Overcast
9:53 PM 43.0°F 39.9°F 89% 30.16 in 10.0 miles South 3.5 mph - N/A   Overcast
10:53 PM 42.1°F 39.0°F 89% 30.16 in 10.0 miles South 4.6 mph - N/A   Mostly Cloudy
11:53 PM 39.9°F 37.9°F 93% 30.17 in 9.0 miles SSW 5.8 mph - N/A   Overcast
Moon Phase
Nov. 24 Nov. 28 Dec. 06 Dec. 13 Dec. 20
Sunrise:07:06 AM (PST) Moon Rise:02:08 PM (PST)
Sunset:04:12 PM (PST) Moon Set:03:18 AM (PST)

Copyright © 2014 The Weather Underground, Inc.